Regional Weather Roundup
Issued by NWS

Home | Current Version | Previous Version | Graphics & Text | Print | Product List | Glossary Off
Versions: 1 2 3 4 5 6 7 8 9 10 11 12 13 14 15 16 17 18 19 20 21 22 23 24 25 26 27 28 29 30 31 32 33 34 35 36 37 38 39 40 41 42 43 44 45 46 47 48 49 50

000
ASUS43 KTOP 292259
RWRKS

WEATHER ROUNDUP FOR KANSAS
NATIONAL WEATHER SERVICE GOODLAND KS
600 PM CDT FRI AUG 29 2014

NOTE:  "FAIR" INDICATES FEW OR NO CLOUDS BELOW 12,000 FEET WITH NO
SIGNIFICANT WEATHER AND/OR OBSTRUCTIONS TO VISIBILITY.

KSZ001>006-013>018-027>032-041>047-300000-
NORTHWEST KANSAS

CITY           SKY/WX    TMP DP  RH WIND       PRES   REMARKS
GOODLAND       SUNNY     84  47  27 N13       29.97S
HAYS           SUNNY     84  55  37 N12       29.86R
HILL CITY      SUNNY     87  52  29 N8        29.87S
RUSSELL        SUNNY     85  59  41 NW12      29.84R
$$

KSZ061>065-074>080-084>089-300000-
SOUTHWEST KANSAS

CITY           SKY/WX    TMP DP  RH WIND       PRES   REMARKS
DODGE CITY     SUNNY     86  49  27 NW13      29.89S
ELKHART          N/A     88  46  23 NW14        N/A
GARDEN CITY    SUNNY     85  48  27 N14       29.91R
GREAT BEND     SUNNY     84  55  37 CALM      29.84R
LIBERAL        SUNNY     88  50  27 E10       29.93R
$$

KSZ066>073-081>083-090>101-300000-
SOUTHEAST KANSAS

CITY           SKY/WX    TMP DP  RH WIND       PRES   REMARKS
CHANUTE        MOSUNNY   87  63  44 S15       29.83S
COFFEYVILLE    PTSUNNY   86  65  49 S12       29.84R
HUTCHINSON     SUNNY     85  63  47 S13       29.84S
NEWTON         MOSUNNY   82  64  54 SW13G20   29.87S
PARSONS        MOSUNNY   88  62  41 SW8       29.85S
WICHITA INTL   PTSUNNY   83  65  54 SW13      29.83S
WICHITA JABRA  PTSUNNY   82  64  54 SW13      29.84R
WINFIELD       MOSUNNY   80  68  66 SW14      29.86F
$$

KSZ007>012-019>026-033>040-048>060-102>105-300000-
NORTHEAST KANSAS

CITY           SKY/WX    TMP DP  RH WIND       PRES   REMARKS
CONCORDIA      MOSUNNY   83  69  62 NW8       29.82R
EMPORIA        SUNNY     87  63  44 SW17      29.81R
LAWRENCE       MOSUNNY   91  63  39 SW13      29.78F
MANHATTAN      PTSUNNY   87  63  44 W7        29.79R
OLATHE IND     SUNNY     86  64  47 S15       29.81F
OLATHE EXE     MOSUNNY   83  68  60 S9        29.81F
SALINA         MOSUNNY   88  57  34 W12       29.82R
TOPEKA BILLARD PTSUNNY   88  64  44 SW6       29.77S
TOPEKA FORBES  PTSUNNY   87  60  40 SW13      29.78R
$$


USA.gov is the U.S. government's official web portal to all federal, state and local government web resources and services.